| time (UTC) | temp F | wind direction | speed MPH | gust MPH | rain 1hr in | rain 24hr in | rain mn in | humidity % | barometer mb |
| 20260507204627 | 49 | 46 | 3.0 | 5.0 | 0.00 | 0.03 | 0.03 | 86 | 1016.7 |
| 20260507203627 | 49 | 32 | 0.0 | 2.0 | 0.00 | 0.03 | 0.03 | 86 | 1016.5 |
| 20260507202627 | 49 | 32 | 1.0 | 4.0 | 0.00 | 0.03 | 0.03 | 86 | 1016.6 |
| 20260507201627 | 49 | 31 | 0.0 | 1.0 | 0.00 | 0.03 | 0.03 | 86 | 1016.5 |
| 20260507200627 | 49 | 31 | 0.0 | 3.0 | 0.00 | 0.03 | 0.03 | 86 | 1016.5 |
| 20260507195627 | 50 | 39 | 1.0 | 4.0 | 0.00 | 0.03 | 0.03 | 86 | 1016.3 |
| 20260507194627 | 50 | 35 | 2.0 | 4.0 | 0.00 | 0.03 | 0.03 | 85 | 1016.1 |
| 20260507193627 | 50 | 27 | 0.0 | 3.0 | 0.00 | 0.03 | 0.03 | 85 | 1016.0 |
| 20260507192627 | 50 | 27 | 0.0 | 2.0 | 0.00 | 0.03 | 0.03 | 84 | 1015.9 |
| 20260507191627 | 51 | 28 | 2.0 | 5.0 | 0.00 | 0.03 | 0.03 | 84 | 1015.7 |
| 20260507190627 | 51 | 18 | 1.0 | 2.0 | 0.00 | 0.03 | 0.03 | 83 | 1015.6 |
| 20260507185627 | 51 | 16 | 0.0 | 2.0 | 0.00 | 0.03 | 0.03 | 83 | 1015.6 |
| 20260507184626 | 52 | 16 | 0.0 | 2.0 | 0.00 | 0.03 | 0.03 | 82 | 1015.3 |
| 20260507183626 | 52 | 16 | 1.0 | 3.0 | 0.00 | 0.03 | 0.03 | 81 | 1015.4 |
| 20260507182628 | 53 | 57 | 2.0 | 5.0 | 0.00 | 0.03 | 0.03 | 81 | 1015.2 |
| 20260507181628 | 53 | 54 | 1.0 | 3.0 | 0.00 | 0.03 | 0.03 | 80 | 1015.3 |
| 20260507180628 | 54 | 56 | 1.0 | 3.0 | 0.00 | 0.03 | 0.03 | 79 | 1015.2 |
| 20260507175627 | 54 | 54 | 0.0 | 3.0 | 0.00 | 0.03 | 0.03 | 79 | 1014.9 |
| 20260507174628 | 55 | 45 | 0.0 | 3.0 | 0.00 | 0.03 | 0.03 | 79 | 1015.0 |
| 20260507173627 | 55 | 45 | 1.0 | 4.0 | 0.00 | 0.03 | 0.03 | 77 | 1015.0 |
| 20260507172626 | 55 | 24 | 0.0 | 2.0 | 0.00 | 0.03 | 0.03 | 77 | 1015.0 |
| 20260507171628 | 56 | 51 | 2.0 | 3.0 | 0.00 | 0.03 | 0.03 | 77 | 1014.8 |
| 20260507170628 | 56 | 57 | 1.0 | 4.0 | 0.00 | 0.03 | 0.03 | 78 | 1014.9 |
| 20260507165628 | 56 | 43 | 1.0 | 2.0 | 0.00 | 0.03 | 0.03 | 77 | 1015.0 |
| 20260507164628 | 56 | 43 | 1.0 | 4.0 | 0.00 | 0.03 | 0.03 | 76 | 1014.8 |
| 20260507163628 | 56 | 41 | 2.0 | 4.0 | 0.00 | 0.03 | 0.03 | 76 | 1014.8 |
| 20260507162627 | 56 | 45 | 2.0 | 4.0 | 0.00 | 0.03 | 0.03 | 77 | 1014.8 |
| 20260507161627 | 57 | 8 | 2.0 | 4.0 | 0.00 | 0.03 | 0.03 | 76 | 1014.8 |
| 20260507160626 | 57 | 47 | 2.0 | 5.0 | 0.00 | 0.03 | 0.03 | 74 | 1014.8 |
| 20260507155626 | 58 | 351 | 0.0 | 2.0 | 0.00 | 0.05 | 0.03 | 74 | 1014.8 |
| 20260507154628 | 59 | 349 | 0.0 | 3.0 | 0.00 | 0.05 | 0.03 | 73 | 1014.7 |
| 20260507153628 | 60 | 14 | 1.0 | 5.0 | 0.00 | 0.05 | 0.03 | 71 | 1014.6 |
| 20260507152628 | 60 | 54 | 2.0 | 4.0 | 0.00 | 0.05 | 0.03 | 71 | 1014.7 |
| 20260507151628 | 60 | 318 | 1.0 | 3.0 | 0.00 | 0.05 | 0.03 | 70 | 1014.5 |
| 20260507150627 | 59 | 200 | 1.0 | 5.0 | 0.00 | 0.05 | 0.03 | 69 | 1014.5 |
| 20260507145626 | 59 | 282 | 1.0 | 2.0 | 0.00 | 0.24 | 0.03 | 70 | 1014.4 |
| 20260507144626 | 59 | 275 | 1.0 | 2.0 | 0.00 | 0.24 | 0.03 | 70 | 1014.4 |
| 20260507143626 | 60 | 302 | 2.0 | 3.0 | 0.00 | 0.24 | 0.03 | 70 | 1014.5 |
| 20260507142626 | 60 | 326 | 2.0 | 5.0 | 0.00 | 0.24 | 0.03 | 71 | 1014.5 |
| 20260507141626 | 60 | 242 | 2.0 | 4.0 | 0.00 | 0.24 | 0.03 | 70 | 1014.5 |
| 20260507140628 | 60 | 328 | 2.0 | 7.0 | 0.00 | 0.24 | 0.03 | 72 | 1014.5 |
| 20260507135628 | 58 | 227 | 1.0 | 6.0 | 0.00 | 0.24 | 0.03 | 73 | 1014.4 |
| 20260507134628 | 57 | 292 | 1.0 | 4.0 | 0.00 | 0.24 | 0.03 | 73 | 1014.5 |
| 20260507133628 | 57 | 5 | 0.0 | 8.0 | 0.00 | 0.24 | 0.03 | 79 | 1014.5 |
| 20260507132628 | 56 | 176 | 2.0 | 5.0 | 0.00 | 0.24 | 0.03 | 81 | 1014.6 |
| 20260507131629 | 55 | 198 | 1.0 | 6.0 | 0.00 | 0.24 | 0.03 | 81 | 1014.7 |
| 20260507130627 | 55 | 161 | 3.0 | 7.0 | 0.00 | 0.24 | 0.03 | 80 | 1014.6 |
| 20260507125627 | 54 | 254 | 1.0 | 6.0 | 0.00 | 0.24 | 0.03 | 81 | 1014.6 |
| 20260507124627 | 54 | 255 | 1.0 | 4.0 | 0.00 | 0.24 | 0.03 | 84 | 1014.6 |
| 20260507123627 | 54 | 143 | 1.0 | 4.0 | 0.00 | 0.24 | 0.03 | 86 | 1014.6 |
| 20260507122627 | 53 | 249 | 0.0 | 3.0 | 0.00 | 0.24 | 0.03 | 86 | 1014.6 |
| 20260507121627 | 53 | 176 | 2.0 | 6.0 | 0.00 | 0.24 | 0.03 | 85 | 1014.4 |
| 20260507120627 | 54 | 178 | 1.0 | 4.0 | 0.00 | 0.24 | 0.03 | 86 | 1014.4 |
| 20260507115627 | 53 | 267 | 1.0 | 3.0 | 0.00 | 0.24 | 0.03 | 87 | 1014.4 |
| 20260507114627 | 53 | 163 | 1.0 | 4.0 | 0.01 | 0.24 | 0.03 | 86 | 1014.5 |
| 20260507113626 | 52 | 260 | 0.0 | 4.0 | 0.01 | 0.24 | 0.03 | 88 | 1014.3 |
| 20260507112626 | 52 | 258 | 2.0 | 5.0 | 0.01 | 0.24 | 0.03 | 89 | 1014.4 |
| 20260507111626 | 52 | 164 | 0.0 | 4.0 | 0.01 | 0.24 | 0.03 | 89 | 1014.4 |
| 20260507110626 | 52 | 143 | 2.0 | 4.0 | 0.01 | 0.24 | 0.03 | 89 | 1014.4 |
| 20260507105626 | 52 | 172 | 2.0 | 4.0 | 0.01 | 0.24 | 0.03 | 88 | 1014.4 |
| 20260507104626 | 52 | 244 | 2.0 | 5.0 | 0.00 | 0.24 | 0.02 | 87 | 1014.4 |
| 20260507103626 | 52 | 193 | 2.0 | 3.0 | 0.00 | 0.24 | 0.02 | 88 | 1014.4 |
| 20260507102627 | 51 | 149 | 1.0 | 6.0 | 0.00 | 0.24 | 0.02 | 88 | 1014.3 |
| 20260507101628 | 51 | 154 | 3.0 | 6.0 | 0.00 | 0.24 | 0.02 | 88 | 1014.3 |
| 20260507100628 | 51 | 160 | 1.0 | 4.0 | 0.00 | 0.24 | 0.02 | 88 | 1014.3 |
| 20260507095627 | 51 | 220 | 2.0 | 6.0 | 0.00 | 0.24 | 0.02 | 88 | 1014.3 |
| 20260507094627 | 51 | 258 | 1.0 | 3.0 | 0.00 | 0.24 | 0.02 | 88 | 1014.3 |
| 20260507093627 | 51 | 202 | 2.0 | 8.0 | 0.00 | 0.24 | 0.02 | 88 | 1014.1 |
| 20260507092627 | 51 | 223 | 2.0 | 5.0 | 0.00 | 0.24 | 0.02 | 89 | 1014.0 |
| 20260507091627 | 51 | 241 | 3.0 | 6.0 | 0.00 | 0.24 | 0.02 | 89 | 1014.0 |
| 20260507090627 | 51 | 274 | 1.0 | 3.0 | 0.00 | 0.24 | 0.02 | 89 | 1013.9 |
| 20260507085627 | 51 | 241 | 2.0 | 4.0 | 0.00 | 0.24 | 0.02 | 89 | 1013.7 |
| 20260507084626 | 51 | 277 | 2.0 | 4.0 | 0.00 | 0.24 | 0.02 | 89 | 1013.6 |
| 20260507083626 | 51 | 179 | 2.0 | 8.0 | 0.01 | 0.24 | 0.02 | 91 | 1013.5 |
| 20260507082626 | 51 | 285 | 1.0 | 5.0 | 0.01 | 0.24 | 0.02 | 92 | 1013.6 |
| 20260507081626 | 50 | 139 | 1.0 | 4.0 | 0.01 | 0.24 | 0.02 | 92 | 1013.5 |
| 20260507080626 | 50 | 257 | 4.0 | 7.0 | 0.01 | 0.24 | 0.02 | 92 | 1013.5 |
| 20260507075627 | 49 | 157 | 3.0 | 8.0 | 0.01 | 0.24 | 0.02 | 92 | 1013.4 |
| 20260507074626 | 49 | 259 | 3.0 | 9.0 | 0.01 | 0.24 | 0.02 | 92 | 1013.5 |
| 20260507073626 | 49 | 154 | 2.0 | 4.0 | 0.01 | 0.23 | 0.02 | 93 | 1013.3 |
| 20260507072626 | 49 | 164 | 3.0 | 4.0 | 0.01 | 0.23 | 0.02 | 93 | 1013.3 |
| 20260507071626 | 48 | 245 | 1.0 | 4.0 | 0.02 | 0.23 | 0.02 | 92 | 1013.2 |
| 20260507070628 | 48 | 267 | 1.0 | 3.0 | 0.02 | 0.23 | 0.02 | 92 | 1013.1 |
| 20260507065628 | 48 | 283 | 1.0 | 3.0 | 0.02 | 0.23 | 0.02 | 92 | 1013.0 |
| 20260507064627 | 48 | 256 | 1.0 | 5.0 | 0.02 | 0.23 | 0.02 | 92 | 1012.9 |
| 20260507063627 | 48 | 219 | 1.0 | 6.0 | 0.01 | 0.22 | 0.01 | 92 | 1012.8 |
| 20260507062627 | 48 | 203 | 1.0 | 4.0 | 0.01 | 0.22 | 0.01 | 92 | 1012.8 |
| 20260507061627 | 48 | 196 | 1.0 | 6.0 | 0.00 | 0.21 | 0.00 | 91 | 1012.8 |
| 20260507060627 | 49 | 163 | 2.0 | 8.0 | 0.00 | 0.21 | 0.00 | 91 | 1012.7 |
| 20260507055627 | 48 | 195 | 1.0 | 4.0 | 0.00 | 0.21 | 0.00 | 92 | 1012.6 |
| 20260507054627 | 48 | 159 | 2.0 | 5.0 | 0.00 | 0.21 | 0.00 | 92 | 1012.4 |
| 20260507053627 | 47 | 148 | 3.0 | 5.0 | 0.00 | 0.21 | 0.00 | 92 | 1012.4 |
| 20260507052627 | 47 | 269 | 1.0 | 4.0 | 0.00 | 0.21 | 0.00 | 91 | 1012.4 |
| 20260507051627 | 47 | 174 | 2.0 | 5.0 | 0.00 | 0.21 | 0.00 | 91 | 1012.2 |
| 20260507050626 | 47 | 191 | 2.0 | 3.0 | 0.00 | 0.21 | 0.00 | 91 | 1012.2 |
| 20260507045626 | 47 | 213 | 2.0 | 3.0 | 0.00 | 0.21 | 0.00 | 91 | 1012.0 |
| 20260507044626 | 47 | 197 | 1.0 | 5.0 | 0.00 | 0.21 | 0.00 | 91 | 1012.0 |
| 20260507043626 | 47 | 187 | 2.0 | 4.0 | 0.00 | 0.21 | 0.00 | 91 | 1011.8 |
| 20260507042626 | 47 | 214 | 0.0 | 3.0 | 0.00 | 0.21 | 0.00 | 91 | 1011.6 |
| 20260507041626 | 46 | 246 | 2.0 | 5.0 | 0.00 | 0.21 | 0.00 | 92 | 1011.4 |
| 20260507040628 | 46 | 243 | 3.0 | 8.0 | 0.00 | 0.21 | 0.00 | 92 | 1011.3 |
| 20260507035628 | 46 | 170 | 1.0 | 5.0 | 0.00 | 0.21 | 0.00 | 92 | 1011.3 |
| 20260507034626 | 45 | 177 | 1.0 | 4.0 | 0.00 | 0.21 | 0.00 | 92 | 1011.3 |
| 20260507033626 | 45 | 197 | 2.0 | 4.0 | 0.00 | 0.21 | 0.00 | 92 | 1011.3 |
| 20260507032626 | 45 | 201 | 1.0 | 3.0 | 0.00 | 0.21 | 0.00 | 92 | 1011.1 |
| 20260507031626 | 45 | 167 | 1.0 | 3.0 | 0.00 | 0.21 | 0.00 | 91 | 1011.1 |
| 20260507030626 | 45 | 209 | 2.0 | 4.0 | 0.00 | 0.21 | 0.00 | 91 | 1011.0 |
| 20260507025626 | 45 | 267 | 0.0 | 3.0 | 0.00 | 0.21 | 0.00 | 92 | 1010.9 |
| 20260507024626 | 45 | 227 | 1.0 | 4.0 | 0.00 | 0.21 | 0.00 | 91 | 1010.9 |
| 20260507023626 | 45 | 156 | 2.0 | 6.0 | 0.00 | 0.21 | 0.00 | 91 | 1010.7 |
| 20260507022627 | 45 | 193 | 2.0 | 4.0 | 0.00 | 0.21 | 0.00 | 91 | 1010.8 |
| 20260507021627 | 46 | 181 | 2.0 | 5.0 | 0.00 | 0.21 | 0.00 | 92 | 1010.8 |
| 20260507020627 | 46 | 275 | 2.0 | 7.0 | 0.00 | 0.21 | 0.00 | 92 | 1010.8 |
| 20260507015627 | 46 | 160 | 4.0 | 7.0 | 0.00 | 0.21 | 0.00 | 92 | 1010.7 |
| 20260507014627 | 46 | 273 | 2.0 | 7.0 | 0.00 | 0.21 | 0.00 | 92 | 1010.7 |
| 20260507013627 | 46 | 273 | 3.0 | 7.0 | 0.00 | 0.21 | 0.00 | 92 | 1010.6 |
| 20260507012627 | 46 | 158 | 3.0 | 9.0 | 0.00 | 0.21 | 0.00 | 92 | 1010.6 |
| 20260507011627 | 46 | 215 | 2.0 | 6.0 | 0.00 | 0.21 | 0.00 | 93 | 1010.4 |
| 20260507010626 | 46 | 149 | 2.0 | 6.0 | 0.00 | 0.21 | 0.00 | 92 | 1010.4 |
| 20260507005626 | 46 | 166 | 3.0 | 5.0 | 0.00 | 0.21 | 0.00 | 92 | 1010.4 |
| 20260507004626 | 46 | 199 | 3.0 | 5.0 | 0.00 | 0.21 | 0.00 | 92 | 1010.2 |
| 20260507003626 | 46 | 195 | 2.0 | 6.0 | 0.00 | 0.21 | 0.00 | 93 | 1010.3 |
| 20260507002626 | 46 | 185 | 3.0 | 5.0 | 0.00 | 0.21 | 0.00 | 93 | 1010.4 |
| 20260507001626 | 46 | 142 | 1.0 | 3.0 | 0.00 | 0.21 | 0.00 | 92 | 1010.4 |
| 20260507000626 | 46 | 196 | 1.0 | 4.0 | 0.00 | 0.21 | 0.00 | 92 | 1010.5 |
| 20260506235626 | 46 | 213 | 3.0 | 4.0 | 0.00 | 0.21 | 0.00 | 92 | 1010.4 |
| 20260506234626 | 46 | 159 | 3.0 | 4.0 | 0.00 | 0.21 | 0.00 | 92 | 1010.4 |
| 20260506233625 | 46 | 168 | 1.0 | 4.0 | 0.00 | 0.21 | 0.00 | 91 | 1010.4 |
| 20260506232627 | 46 | 160 | 1.0 | 3.0 | 0.00 | 0.21 | 0.00 | 91 | 1010.5 |
| 20260506231627 | 47 | 147 | 2.0 | 6.0 | 0.00 | 0.21 | 0.00 | 91 | 1010.4 |
| 20260506230627 | 47 | 148 | 0.0 | 1.0 | 0.00 | 0.21 | 0.00 | 91 | 1010.4 |
| 20260506225627 | 47 | 144 | 0.0 | 4.0 | 0.00 | 0.21 | 0.00 | 91 | 1010.3 |
| 20260506224627 | 47 | 175 | 2.0 | 4.0 | 0.00 | 0.21 | 0.00 | 91 | 1010.3 |
| 20260506223627 | 47 | 185 | 1.0 | 4.0 | 0.00 | 0.21 | 0.00 | 91 | 1010.2 |
| 20260506222627 | 47 | 185 | 2.0 | 5.0 | 0.00 | 0.21 | 0.00 | 91 | 1010.4 |
| 20260506221626 | 47 | 176 | 2.0 | 4.0 | 0.00 | 0.21 | 0.00 | 90 | 1010.2 |
| 20260506220626 | 47 | 157 | 2.0 | 5.0 | 0.00 | 0.21 | 0.00 | 90 | 1010.1 |
| 20260506215626 | 47 | 168 | 2.0 | 5.0 | 0.00 | 0.21 | 0.21 | 90 | 1010.0 |
| 20260506214626 | 48 | 172 | 2.0 | 4.0 | 0.00 | 0.21 | 0.21 | 90 | 1009.9 |
| 20260506213626 | 48 | 170 | 1.0 | 3.0 | 0.00 | 0.21 | 0.21 | 90 | 1009.9 |
| 20260506212626 | 48 | 172 | 1.0 | 6.0 | 0.00 | 0.21 | 0.21 | 90 | 1009.8 |
| 20260506211626 | 48 | 167 | 1.0 | 3.0 | 0.00 | 0.21 | 0.21 | 90 | 1009.8 |
| 20260506210626 | 48 | 253 | 2.0 | 6.0 | 0.00 | 0.21 | 0.21 | 90 | 1009.7 |
| 20260506205626 | 49 | 151 | 2.0 | 4.0 | 0.00 | 0.21 | 0.21 | 90 | 1009.6 |